{"data":{"norad_id":58672,"epoch":"2026-05-25T00:09:46.230912Z","epoch_age_seconds":81297,"freshness":"FRESH","line1":"1 58672U 23211F   26145.00678508  .00121491  00000+0  22353-2 0  9993","line2":"2 58672  42.9945   4.9394 0021514 259.9135  99.9296 15.47803176135521","mean_motion":15.47803176,"eccentricity":0.0021514,"inclination_deg":42.9945,"raan_deg":4.9394,"arg_perigee_deg":259.9135,"mean_anomaly_deg":99.9296,"bstar":0.0022353,"rev_number":13552,"period_min":93.035084972587,"perigee_km":408.5216303024,"apogee_km":437.7862249057,"semimajor_km":6801.2909276041,"source":"CELESTRAK","updated_at":"2026-05-25T13:38:18.710781Z"}}